Flag for Poland Weather past 2 weeks in Kraków, Poland

Now
52 °F

Overcast.


Feels Like: 50 °F
Forecast: 52 / 62 °F
Wind: 6 mph from Northeast

Location: Krakow Airport

Current Time: May 23, 2015 at 4:49:13 AM

Latest Report: May 23, 2015 at 4:30 AM


Visibility: N/A

Pressure: 30.07 "Hg

Humidity: 88%

Dew point: 48 °F

Location of KrakówLocation

Historic Weather in Kraków — Graph

°F

Kraków temperature yesterday

Maximum temperature yesterday: 59 °F (at 12:30 PM)
Minimum temperature yesterday: 50 °F (at 12:00 AM)
Average temperature yesterday: 54 °F

Past Weeks' High & Low Weather Summary

 TemperatureHumidityPressure
High77 °F (May 19, 12:30 PM)100% (May 10, 7:30 AM)30.39 "Hg (May 10, 7:30 AM)
Low37 °F (May 15, 3:00 AM)30% (May 18, 1:30 PM)29.74 "Hg (May 14, 7:00 AM)
Average56 °F71%30.05 "Hg
* Reported May 8 3:00 AM — May 23 3:30 AM, Kraków, Weather by CustomWeather, © 2015

Note: Actual official high and low records may vary slightly from our data, if they occured in-between our weather recording intervals... More about our weather records

Advertising

Kraków weather history for previous 24 hours

 ConditionsComfort  
Time TempWeatherWind HumidityBarometerVisibility
3:30 AM
Sat, May 23
52 °FOvercast.7 mph88%30.09 "HgN/A
3:00 AM52 °FOvercast.6 mph88%30.09 "HgN/A
2:30 AM52 °FOvercast.6 mph88%30.12 "HgN/A
2:00 AM52 °FOvercast.6 mph88%30.12 "HgN/A
1:30 AM52 °FOvercast.6 mph88%30.12 "HgN/A
1:00 AM54 °FPassing clouds.6 mph82%30.12 "HgN/A
12:30 AM54 °FPassing clouds.6 mph82%30.15 "HgN/A
12:00 AM54 °FPassing clouds.7 mph82%30.12 "HgN/A
11:00 PM
Fri, May 22
54 °FPassing clouds.6 mph82%30.15 "HgN/A
10:30 PM54 °FPassing clouds.6 mph77%30.15 "HgN/A
10:00 PM54 °FPassing clouds.6 mph77%30.18 "HgN/A
9:30 PM54 °FPassing clouds.6 mph77%30.18 "HgN/A
9:00 PM54 °FScattered clouds.6 mph77%30.18 "HgN/A
8:30 PM55 °FScattered clouds.6 mph72%30.18 "HgN/A
8:00 PM55 °FPassing clouds.8 mph72%30.18 "HgN/A
7:30 PM57 °FScattered clouds.9 mph67%30.18 "HgN/A
7:00 PM57 °FScattered clouds.9 mph67%30.18 "HgN/A
6:30 PM57 °FPartly sunny.10 mph67%30.18 "HgN/A
6:00 PM57 °FPartly sunny.12 mph67%30.18 "HgN/A
5:30 PM57 °FPartly sunny.10 mph67%30.18 "HgN/A
5:00 PM59 °FPartly sunny.13 mph59%30.18 "HgN/A
4:30 PM57 °FPartly sunny.13 mph67%30.21 "HgN/A
4:00 PM59 °FPartly sunny.12 mph63%30.21 "HgN/A
3:30 PM57 °FPartly sunny.8 mph67%30.21 "HgN/A
3:00 PM57 °FPartly sunny.12 mph63%30.21 "HgN/A
2:30 PM57 °FBroken clouds.9 mph67%30.21 "HgN/A
2:00 PM59 °FBroken clouds.12 mph63%30.21 "HgN/A
1:30 PM57 °FBroken clouds.8 mph67%30.24 "HgN/A
1:00 PM59 °FBroken clouds.12 mph63%30.24 "HgN/A
12:30 PM59 °FBroken clouds.13 mph68%30.24 "HgN/A
12:00 PM57 °FBroken clouds.14 mph67%30.24 "HgN/A
11:30 AM55 °FBroken clouds.13 mph67%30.24 "HgN/A
11:00 AM55 °FPartly sunny.10 mph72%30.24 "HgN/A
10:30 AM55 °FPartly sunny.10 mph72%30.24 "HgN/A
10:00 AM55 °FPartly sunny.9 mph72%30.24 "HgN/A
9:30 AM54 °FPartly sunny.10 mph77%30.24 "HgN/A
9:00 AM54 °FPartly sunny.9 mph77%30.24 "HgN/A
8:30 AM54 °FPartly sunny.8 mph82%30.24 "HgN/A
8:00 AM52 °FPartly sunny.7 mph88%30.21 "HgN/A
7:30 AM50 °FPartly sunny.6 mph94%30.24 "HgN/A
7:00 AM50 °FPartly sunny.3 mph94%30.21 "HgN/A
6:30 AM50 °FPartly sunny.5 mph94%30.21 "HgN/A
6:00 AM50 °FPartly sunny.3 mph94%30.21 "HgN/A
5:30 AM50 °FLight rain. Passing clouds.3 mph94%30.21 "HgN/A
5:00 AM50 °FPassing clouds.1 mph94%30.21 "HgN/A
4:30 AM50 °FPassing clouds.3 mph94%30.21 "HgN/A
4:00 AM50 °FPassing clouds.3 mph94%30.21 "HgN/A
Weather by CustomWeather, © 2015

See weather overviewHow to use our weather pages